sat.trackr.live / text

‹ back to catalog

YAOGAN-20 01A

NORAD 40109 · 2014-047A

PAYLOAD ACTIVE UNKNOWN

§ Identity

Operator
Country
PRC
Launch date
2014-08-09
Launch site
JSC
Launch vehicle
Mass (kg)
RCS (m²)
2.81

External: N2YO · Heavens-Above · Gunter

§ Orbital elements

Epoch: 2026-09-04T05:16:01.788096Z

Period
107.03 min
Inclination
63.3779°
Eccentricity
0.0397136
Mean motion
13.45447757 rev/d
Perigee alt
792.5 km
Apogee alt
1,385.6 km
Semi-major
7,467.2 km
B*
2.1443e-4
RAAN
175.3601°
Arg perigee
15.0953°
Mean anomaly
346.1530°
Rev number
59,307

§ Raw data

YAOGAN-20 01A1 40109U 14047A   26247.21946514  .00000114  00000+0  21443-3 0  99952 40109  63.3779 175.3601 0397136  15.0953 346.1530 13.45447757593079

JSON: /api/v1/satellites/40109 · /tle

For live sub-satellite position, see the globe view (requires WebGL).

§ Visibility from observer

Set your observer location to see the next 7 days of passes ≥ 10°. The values pass through the URL so the page stays shareable.

No JS? Fill the form by hand. The geolocation button needs JavaScript.